MOLNIYA 1-87

Last updated on Jan. 26, 2021, 8:12 a.m. UTC

1 22949U 93079A   21025.34326596 -.00000855  00000-0  00000-0 0  9991
2 22949  63.4660 148.3307 6786568 287.6555  12.9137  2.02880093 64626
UTC
Height (km)
Latitude
Longitude
Inclination
Orbital Period
UTC large
Height (km)
Speed (km/s)
/
Latitude / Longitude
Inclination (degrees)
Orbital Period (minutes)
Azimuth
Elevation
Range (km)
Doppler Factor
iOS Compass Heading
iOS Angle

Next 30 passes for location: Hong Kong

Rise time Rise Azimuth (degrees) Set time Set Azimuth (degrees) Duration Max altitude (degrees)

No matching passes for this satellites